Погода в Дунъине

Китай     37°28′39″N   118°33′15″E
темп.,
°C
ветер,
м/с
пор.,
м/с
влажн.,
%
обл.,
%
осадки,
мм/ч
давл.,
гПа
погр.,
м
8 мая, сб
сб823:00+19ююз49210 0.0 1004204
02:00+19юз719200 0.0 1000559
05:00+19юз719240 0.0 998479
08:00+23зсз9172093 0.0 10001074
11:00+23ссв892144 0.0 10041255
14:00+24с681278 0.0 10052107
17:00+24с481098 0.0 10051641
20:00+21вюв2314100 0.0 100690
9 мая, вс
вс923:00+18ю3619100 0.0 1008192
02:00+17ююв231952 0.0 100877
05:00+16юв242216 0.0 100978
08:00+20юв451910 0.0 1009308
11:00+26ююв561431 0.0 10081244
14:00+29ююв781716 0.0 10042019
17:00+28ююв792741 0.0 10021927
20:00+21юв814305 0.0 1002473
10 мая, пн
пн1023:00+17вюв71356100 4.6 1004483
02:00+16вюв61175100 9.4 1004489
05:00+15в51087100 5.4 1004472
08:00+14в101485100 9.3 1007657
11:00+14вюв81278100 0.0 1009554
14:00+17в5765100 0.0 1010759
17:00+17в6764100 0.0 1010725
20:00+15в5971100 0.0 1011572
11 мая, вт
вт1123:00+14в486966 0.0 1013377
02:00+13в3572100 0.0 1012240
05:00+12св348265 0.0 1012169
08:00+15всв356558 0.0 1013519
11:00+19в4549100 0.0 1012872
14:00+22вюв44418 0.0 1010904
17:00+21вюв444423 0.0 1008711
20:00+18вюв46553 0.0 1008175
12 мая, ср
ср1223:00+18юв5107477 0.0 1008287
02:00+16ююв498272 0.0 1007230
05:00+15юв3687100 0.0 1007155
08:00+19юв4571100 0.0 1009307
11:00+25юв3348100 0.0 1008790
14:00+28юв453712 0.0 10061444
17:00+28юв55387 0.0 10051123
20:00+23юв6116685 0.0 1006445